Location: Eschertshofen
(49.3064°N, 11.5756°E)
Time: 16:05:11
(UTC+00:00)

Iridium 26 - Visible Passes

Search period start: 25 September 2021 00:00
Search period end: 05 October 2021 00:00
Orbit: 772 x 775 km, 86.4° (Epoch: 25 September)

Date Brightness Start Highest point End Pass type
(mag) Time Alt. Az. Time Alt. Az. Time Alt. Az.
25 Sep 7.3 19:17:08 16° NE 19:17:08 16° NE 19:18:50 10° NNE visible
25 Sep 7.0 20:57:31 33° NNW 20:57:31 33° NNW 21:00:25 10° N visible
26 Sep 7.7 18:42:24 10° NE 18:42:24 10° NE 18:42:30 10° NE visible
26 Sep 6.8 20:22:46 34° N 20:22:46 34° N 20:25:40 10° N visible
26 Sep 8.1 22:03:09 15° NW 22:03:09 15° NW 22:05:04 10° NNW visible
27 Sep 6.8 19:48:01 28° NNE 19:48:01 28° NNE 19:50:43 10° NNE visible
27 Sep 7.6 21:28:23 23° NW 21:28:23 23° NW 21:31:04 10° NNW visible
28 Sep 7.1 19:13:15 20° NE 19:13:15 20° NE 19:15:29 10° NNE visible
28 Sep 7.1 20:53:37 32° NNW 20:53:37 32° NNW 20:56:39 10° N visible
29 Sep 7.4 18:38:28 13° NE 18:38:28 13° NE 18:39:44 10° NE visible
29 Sep 6.6 20:18:51 38° N 20:18:51 38° N 20:22:00 10° N visible
29 Sep 8.3 21:59:13 13° NW 21:59:13 13° NW 22:00:43 10° NW visible
30 Sep 6.5 19:44:03 35° NNE 19:44:03 35° NNE 19:47:08 10° N visible
30 Sep 7.8 21:24:25 20° NW 21:24:25 20° NW 21:27:07 10° NNW visible
01 Oct 6.8 19:09:14 26° NE 19:09:14 26° NE 19:12:03 10° NNE visible
01 Oct 7.2 20:49:37 30° NW 20:49:37 30° NW 20:52:51 10° N visible
02 Oct 7.1 18:34:25 17° NE 18:34:25 17° NE 18:36:36 10° NNE visible
02 Oct 6.6 20:14:47 41° NNW 20:14:47 41° NNW 20:18:17 10° N visible
02 Oct 8.4 21:55:09 10° WNW 21:55:09 10° WNW 21:55:23 10° WNW visible
03 Oct 7.5 17:59:34 11° ENE 17:59:34 11° ENE 18:00:00 10° NE visible
03 Oct 6.2 19:39:56 44° NNE 19:39:56 44° NNE 19:43:31 10° N visible
03 Oct 8.0 21:20:18 17° WNW 21:20:18 17° WNW 21:23:03 10° NNW visible
04 Oct 6.3 19:05:03 34° NE 19:05:03 34° NE 19:08:32 10° NNE visible
04 Oct 7.3 20:45:25 27° NW 20:45:25 27° NW 20:48:59 10° NNW visible
